THOR ABLESTAR DEB, 3744

Orbit data source: Space-Track

THOR ABLESTAR DEB, 3744 is space debris in LEO originally from a launch on Thu, 29 Jun 1961 UTC launched from the Air Force Eastern Test Range (AFETR). Debris objects in space refer to the collection of defunct objects orbiting the Earth. Examples of debris include non-operational satellites, rocket bodies, and fragments generated from explosions, collisions, or faulty payload assembly.

Loading next visibility...
Identifier
3744, 1961-015JC
Orbit
LEO
Country
Flag of USUS
Related business
Manufacturer
Unknown
Mission
Spacecraft
Bus & Motor
Unknown
Mass
Unknown
Launch date (UTC)
1961-06-29 (65 years ago)
Launch vehicle
Unknown
Launch site
Air Force Eastern Test Range (AFETR)
Object type
Payload
Rocket body
Debris
Shape & HBR
Unknown shape, 0.1 m
Radar Cross Section
Small (<0.1 m²)

Expand to show TLE details & history
Last TLE update: 17 hours ago

TLE from 17 hours ago
0 THOR ABLESTAR DEB
1 03744U 61015JC  26033.53979515  .00003068  00000-0  19578-2 0  9998
2 03744  66.9766  85.4211 0126566 210.3896 148.9812 14.00942370861666
Epoch: 2026-02-02T12:57Z
TLE epoch observation values (Epoch: 2026-02-02T12:57:18.300Z)
Latitude
-0.00001°
Longitude
118.36122°
Altitude
971.787 km
Speed
7.326 km/s
True Right ascension
05h 41m 41s
True Declination
0° 00' 00"
Sunlit
Object was in full shadow at epoch
Visualization orbit readout
Latitude
Unknown
Longitude
Unknown
Altitude
Unknown
Speed
Unknown
Apparent Right ascension
Unknown
Apparent Declination
Unknown
Sunlit
N/A
Visualization observer readout
Local Sidereal Time
07:46:39
Azimuth
Unknown
Elevation
Unknown
Doppler factor
Unknown
Orbital elements
Apogee altitude
980.875 km
Perigee altitude
796.923 km
Semi-major axis
7,267.036 km
Eccentricity
0.01266
Inclination
66.9766°
RAAN
85.4211°
Arg. of periapsis
210.3896°
True anomaly
149.71856°
Mean anomaly
148.9812°
Eccentric anomaly
149.35088°
Mean motion
3.50354 °/min
Orbital period
102.75 mins
BSTAR
0.0019578
Loading maneuver chart data...
Computing Atmospheric mass density...
Loading historical data...
Loading historical data...
Loading historical data...
Loading historical data...
Loading historical data...
Loading historical data...
Loading historical data...

Documentation

Showing up to 5 results
|